﻿_id,日時,平均風速(m/s),平均風向,最大瞬間風速(m/s),最大風速時風向,気温(℃),湿度(%),10分間移動積算雨量(mm),1時間移動積算雨量(mm),日雨量(mm),累計雨量(mm),日射(日積算)(MJ/m2),日照(日積算)(min),現地気圧(hPa),海面気圧(hPa)
1,2022-06-13T00:00:00,1.9,北,4.6,北,17.3,70,0,0,0,0,26.79,609,1001.5,1015.2
2,2022-06-13T00:01:00,1.9,北,4.6,北,17.1,70.3,0,0,0,0,0,0,1001.5,1015.2
3,2022-06-13T00:02:00,1.9,北,4.6,北,17.1,71.1,0,0,0,0,0,0,1001.5,1015.2
4,2022-06-13T00:03:00,1.9,北,4.6,北,17.2,71.3,0,0,0,0,0,0,1001.5,1015.2
5,2022-06-13T00:04:00,1.8,北北東,4.6,北,17.3,71.2,0,0,0,0,0,0,1001.5,1015.2
6,2022-06-13T00:05:00,1.7,北北東,3.5,北北東,17.5,71.8,0,0,0,0,0,0,1001.5,1015.2
7,2022-06-13T00:06:00,1.7,北北東,3.5,北北東,17.4,71.7,0,0,0,0,0,0,1001.6,1015.3
8,2022-06-13T00:07:00,1.7,北北東,3.2,北北東,17.2,71.8,0,0,0,0,0,0,1001.6,1015.3
9,2022-06-13T00:08:00,1.8,北北東,3.6,北北東,17.2,72.2,0,0,0,0,0,0,1001.6,1015.3
10,2022-06-13T00:09:00,1.9,北北東,3.6,北北東,17.3,73,0,0,0,0,0,0,1001.6,1015.3
11,2022-06-13T00:10:00,2.1,北北東,3.7,北北東,17.2,72.8,0,0,0,0,0,0,1001.6,1015.3
12,2022-06-13T00:11:00,2.3,北北東,4.1,北東,17.2,72.6,0,0,0,0,0,0,1001.6,1015.3
13,2022-06-13T00:12:00,2.4,北北東,4.1,北東,17.1,73,0,0,0,0,0,0,1001.6,1015.3
14,2022-06-13T00:13:00,2.6,北北東,4.1,北東,17.2,72.9,0,0,0,0,0,0,1001.6,1015.3
15,2022-06-13T00:14:00,2.6,北北東,4.1,北東,17.3,73.3,0,0,0,0,0,0,1001.6,1015.3
16,2022-06-13T00:15:00,2.7,北北東,4.1,北東,17.2,73,0,0,0,0,0,0,1001.7,1015.4
17,2022-06-13T00:16:00,2.7,北北東,4.1,北東,17.3,73.1,0,0,0,0,0,0,1001.7,1015.4
18,2022-06-13T00:17:00,2.8,北北東,4.6,北北東,17.1,72.7,0,0,0,0,0,0,1001.7,1015.4
19,2022-06-13T00:18:00,2.8,北北東,4.6,北北東,17.3,73.5,0,0,0,0,0,0,1001.7,1015.4
20,2022-06-13T00:19:00,2.8,北北東,4.6,北北東,17.2,73.2,0,0,0,0,0,0,1001.7,1015.4
21,2022-06-13T00:20:00,2.7,北北東,4.6,北北東,17.2,73.5,0,0,0,0,0,0,1001.8,1015.5
22,2022-06-13T00:21:00,2.7,北北東,4.6,北北東,17.2,73.5,0,0,0,0,0,0,1001.7,1015.4
23,2022-06-13T00:22:00,2.6,北北東,4.6,北北東,17,73.2,0,0,0,0,0,0,1001.8,1015.5
24,2022-06-13T00:23:00,2.6,北北東,4.6,北北東,17,73.7,0,0,0,0,0,0,1001.8,1015.5
25,2022-06-13T00:24:00,2.6,北北東,4.6,北北東,17.1,74.3,0,0,0,0,0,0,1001.8,1015.5
26,2022-06-13T00:25:00,2.6,北北東,4.6,北北東,17.2,74,0,0,0,0,0,0,1001.8,1015.5
27,2022-06-13T00:26:00,2.5,北北東,4.6,北北東,17.2,73.9,0,0,0,0,0,0,1001.7,1015.4
28,2022-06-13T00:27:00,2.4,北北東,3.9,北北東,17.2,73.5,0,0,0,0,0,0,1001.8,1015.5
29,2022-06-13T00:28:00,2.3,北北東,3.9,北北東,17.1,73.4,0,0,0,0,0,0,1001.7,1015.4
30,2022-06-13T00:29:00,2.4,北北東,3.9,北北東,17,73.4,0,0,0,0,0,0,1001.7,1015.4
31,2022-06-13T00:30:00,2.4,北北東,3.6,北東,16.8,73.5,0,0,0,0,0,0,1001.7,1015.5
32,2022-06-13T00:31:00,2.4,北北東,3.9,北東,16.9,74.2,0,0,0,0,0,0,1001.8,1015.6
33,2022-06-13T00:32:00,2.5,北北東,3.9,北東,17.1,74.4,0,0,0,0,0,0,1001.8,1015.5
34,2022-06-13T00:33:00,2.5,北東,3.9,北東,17.2,74.6,0,0,0,0,0,0,1001.8,1015.5
35,2022-06-13T00:34:00,2.6,北東,4,北北東,17.1,73.8,0,0,0,0,0,0,1001.8,1015.5
36,2022-06-13T00:35:00,2.6,北東,4,北北東,17,73.6,0,0,0,0,0,0,1001.8,1015.5
37,2022-06-13T00:36:00,2.7,北東,4,北北東,17,73.6,0,0,0,0,0,0,1001.8,1015.5
38,2022-06-13T00:37:00,2.8,北北東,4,北北東,16.9,73.8,0,0,0,0,0,0,1001.8,1015.6
39,2022-06-13T00:38:00,2.9,北北東,4.1,北,17,74.3,0,0,0,0,0,0,1001.8,1015.5
40,2022-06-13T00:39:00,2.8,北北東,4.1,北,17,74.5,0,0,0,0,0,0,1001.8,1015.5
41,2022-06-13T00:40:00,2.7,北北東,4.1,北,17.1,74.3,0,0,0,0,0,0,1001.8,1015.5
42,2022-06-13T00:41:00,2.6,北北東,4.1,北,17.1,74,0,0,0,0,0,0,1001.8,1015.5
43,2022-06-13T00:42:00,2.5,北北東,4.1,北,17.1,74,0,0,0,0,0,0,1001.8,1015.5
44,2022-06-13T00:43:00,2.3,北北東,4.1,北,16.8,73.6,0,0,0,0,0,0,1001.8,1015.6
45,2022-06-13T00:44:00,2.2,北北東,4.1,北,16.8,73.9,0,0,0,0,0,0,1001.8,1015.6
46,2022-06-13T00:45:00,2.2,北,4.1,北,16.8,74.6,0,0,0,0,0,0,1001.8,1015.6
47,2022-06-13T00:46:00,2,北,4.1,北,17,75.2,0,0,0,0,0,0,1001.9,1015.6
48,2022-06-13T00:47:00,1.9,北,4.1,北,17,74.9,0,0,0,0,0,0,1001.8,1015.5
49,2022-06-13T00:48:00,1.9,北,3.5,北北東,16.9,74.5,0,0,0,0,0,0,1001.8,1015.6
50,2022-06-13T00:49:00,1.8,北,3.5,北北東,16.9,74.2,0,0,0,0,0,0,1001.8,1015.6
51,2022-06-13T00:50:00,1.8,北,3.5,北北東,17.1,75.2,0,0,0,0,0,0,1001.9,1015.6
52,2022-06-13T00:51:00,1.8,北,3.5,北北東,17,74.6,0,0,0,0,0,0,1001.9,1015.6
53,2022-06-13T00:52:00,1.7,北,3.5,北北東,16.8,74.3,0,0,0,0,0,0,1001.9,1015.7
54,2022-06-13T00:53:00,1.7,北,3.5,北北東,16.8,74.6,0,0,0,0,0,0,1001.9,1015.7
55,2022-06-13T00:54:00,1.8,北,3.5,北北東,16.7,74.7,0,0,0,0,0,0,1001.8,1015.6
56,2022-06-13T00:55:00,1.7,北,3,北北東,16.7,74.7,0,0,0,0,0,0,1001.8,1015.6
57,2022-06-13T00:56:00,1.7,北,3,北北東,16.5,74.6,0,0,0,0,0,0,1001.8,1015.6
58,2022-06-13T00:57:00,1.6,北,3,北北東,16.5,74.7,0,0,0,0,0,0,1001.8,1015.6
59,2022-06-13T00:58:00,1.5,北,3,北北東,16.5,75.1,0,0,0,0,0,0,1001.8,1015.6
60,2022-06-13T00:59:00,1.5,北,3,北北東,16.6,75.4,0,0,0,0,0,0,1001.8,1015.6
61,2022-06-13T01:00:00,1.4,北,2.8,北北東,16.7,75.3,0,0,0,0,0,0,1001.8,1015.6
62,2022-06-13T01:01:00,1.4,北,2.8,北北東,16.8,75.1,0,0,0,0,0,0,1001.7,1015.5
63,2022-06-13T01:02:00,1.5,北,2.8,北北東,17,75,0,0,0,0,0,0,1001.7,1015.4
64,2022-06-13T01:03:00,1.5,北,2.7,北北東,17,74.4,0,0,0,0,0,0,1001.7,1015.4
65,2022-06-13T01:04:00,1.5,北,2.7,北北東,17,74.2,0,0,0,0,0,0,1001.7,1015.4
66,2022-06-13T01:05:00,1.6,北,2.7,北北東,16.8,73.7,0,0,0,0,0,0,1001.7,1015.5
67,2022-06-13T01:06:00,1.6,北,2.7,北北東,16.8,74.2,0,0,0,0,0,0,1001.7,1015.5
68,2022-06-13T01:07:00,1.8,北北東,3.8,北北東,16.9,75,0,0,0,0,0,0,1001.7,1015.5
69,2022-06-13T01:08:00,2,北北東,5.1,北北東,16.8,74.8,0,0,0,0,0,0,1001.7,1015.5
70,2022-06-13T01:09:00,2.2,北北東,5.1,北北東,17,75.4,0,0,0,0,0,0,1001.6,1015.3
71,2022-06-13T01:10:00,2.4,北北東,5.1,北北東,17.1,75.2,0,0,0,0,0,0,1001.6,1015.3
72,2022-06-13T01:11:00,2.5,北北東,5.1,北北東,16.9,74.1,0,0,0,0,0,0,1001.6,1015.4
73,2022-06-13T01:12:00,2.5,北北東,5.1,北北東,16.8,74.1,0,0,0,0,0,0,1001.6,1015.4
74,2022-06-13T01:13:00,2.6,北北東,5.1,北北東,16.7,73.9,0,0,0,0,0,0,1001.6,1015.4
75,2022-06-13T01:14:00,2.7,北北東,5.1,北北東,16.6,74.5,0,0,0,0,0,0,1001.6,1015.4
76,2022-06-13T01:15:00,2.7,北北東,5.1,北北東,16.7,75,0,0,0,0,0,0,1001.5,1015.3
77,2022-06-13T01:16:00,2.6,北,5.1,北北東,16.8,75.1,0,0,0,0,0,0,1001.5,1015.3
78,2022-06-13T01:17:00,2.6,北,5.1,北北東,16.9,75.2,0,0,0,0,0,0,1001.5,1015.2
79,2022-06-13T01:18:00,2.5,北,4.3,北北東,16.9,74.8,0,0,0,0,0,0,1001.5,1015.2
80,2022-06-13T01:19:00,2.5,北,4.1,北北東,16.8,74.6,0,0,0,0,0,0,1001.5,1015.3
81,2022-06-13T01:20:00,2.4,北,4.1,北北東,16.9,75.2,0,0,0,0,0,0,1001.4,1015.1
82,2022-06-13T01:21:00,2.4,北北東,4.1,北北東,16.8,75,0,0,0,0,0,0,1001.4,1015.2
83,2022-06-13T01:22:00,2.4,北北東,4.1,北北東,16.7,75,0,0,0,0,0,0,1001.4,1015.2
84,2022-06-13T01:23:00,2.3,北北東,4.1,北北東,16.7,75.3,0,0,0,0,0,0,1001.4,1015.2
85,2022-06-13T01:24:00,2.3,北北東,4.1,北北東,16.6,75.9,0,0,0,0,0,0,1001.4,1015.2
86,2022-06-13T01:25:00,2.3,北北東,4.1,北北東,16.5,75.7,0,0,0,0,0,0,1001.5,1015.3
87,2022-06-13T01:26:00,2.3,北北東,4.1,北北東,16.5,76.3,0,0,0,0,0,0,1001.5,1015.3
88,2022-06-13T01:27:00,2.2,北北東,4.1,北北東,16.4,76.3,0,0,0,0,0,0,1001.4,1015.2
89,2022-06-13T01:28:00,2.1,北,4.1,北,16.4,76.5,0,0,0,0,0,0,1001.5,1015.3
90,2022-06-13T01:29:00,2,北,4.1,北,16.4,76.7,0,0,0,0,0,0,1001.4,1015.2
91,2022-06-13T01:30:00,2,北,4.1,北,16.4,76.3,0,0,0,0,0,0,1001.4,1015.2
92,2022-06-13T01:31:00,1.9,北,4.1,北,16.3,76.5,0,0,0,0,0,0,1001.4,1015.2
93,2022-06-13T01:32:00,1.9,北,4.1,北,16.4,76.8,0,0,0,0,0,0,1001.3,1015.1
94,2022-06-13T01:33:00,1.9,北,4.3,北,16.4,76.5,0,0,0,0,0,0,1001.3,1015.1
95,2022-06-13T01:34:00,2,北,4.3,北,16.4,76.2,0,0,0,0,0,0,1001.3,1015.1
96,2022-06-13T01:35:00,1.9,北北西,4.3,北,16.3,76.1,0,0,0,0,0,0,1001.3,1015.1
97,2022-06-13T01:36:00,1.9,北北西,4.9,北,16.4,76.5,0,0,0,0,0,0,1001.2,1015
98,2022-06-13T01:37:00,1.9,北北西,4.9,北,16.4,76.8,0,0,0,0,0,0,1001.2,1015
99,2022-06-13T01:38:00,1.9,北北西,4.9,北,16.4,76.7,0,0,0,0,0,0,1001.2,1015
100,2022-06-13T01:39:00,1.8,北北西,4.9,北,16.3,76.4,0,0,0,0,0,0,1001.2,1015
101,2022-06-13T01:40:00,1.8,北,4.9,北,16.4,76.8,0,0,0,0,0,0,1001.1,1014.9
102,2022-06-13T01:41:00,1.8,北,4.9,北,16.4,77.1,0,0,0,0,0,0,1001.1,1014.9
103,2022-06-13T01:42:00,1.8,北,4.9,北,16.4,77,0,0,0,0,0,0,1001.1,1014.9
104,2022-06-13T01:43:00,1.8,北,4.9,北,16.4,77,0,0,0,0,0,0,1001.1,1014.9
105,2022-06-13T01:44:00,1.7,北,4.9,北,16.5,77.3,0,0,0,0,0,0,1001,1014.8
106,2022-06-13T01:45:00,1.7,北,4.9,北,16.4,77.4,0,0,0,0,0,0,1001,1014.8
107,2022-06-13T01:46:00,1.6,北,3.9,北北東,16.5,77.5,0,0,0,0,0,0,1001,1014.8
108,2022-06-13T01:47:00,1.6,北,3.9,北北東,16.4,77.4,0,0,0,0,0,0,1001,1014.8
109,2022-06-13T01:48:00,1.6,北,3.9,北北東,16.4,77.5,0,0,0,0,0,0,1001,1014.8
110,2022-06-13T01:49:00,1.8,北,3.9,北北東,16.3,77.2,0,0,0,0,0,0,1001,1014.8
111,2022-06-13T01:50:00,1.8,北,3.9,北西,16.2,77.1,0,0,0,0,0,0,1001,1014.8
112,2022-06-13T01:51:00,1.8,北,3.9,北西,16.3,77.3,0,0,0,0,0,0,1001,1014.8
113,2022-06-13T01:52:00,1.7,北北西,3.9,北西,16.4,77.7,0,0,0,0,0,0,1001,1014.8
114,2022-06-13T01:53:00,1.7,北北西,3.9,北西,16.4,77.4,0,0,0,0,0,0,1001,1014.8
115,2022-06-13T01:54:00,1.7,北北西,3.9,北西,16.3,77.1,0,0,0,0,0,0,1001,1014.8
116,2022-06-13T01:55:00,1.7,北北西,3.9,北西,16.4,77.1,0,0,0,0,0,0,1001,1014.8
117,2022-06-13T01:56:00,1.8,北北西,4.5,北,16.4,77.3,0,0,0,0,0,0,1001,1014.8
118,2022-06-13T01:57:00,1.9,北北西,4.5,北,16.3,77.2,0,0,0,0,0,0,1001,1014.8
119,2022-06-13T01:58:00,1.9,北北西,4.5,北,16.3,77.4,0,0,0,0,0,0,1001,1014.8
120,2022-06-13T01:59:00,1.8,北北西,4.5,北,16.3,77.4,0,0,0,0,0,0,1001,1014.8
121,2022-06-13T02:00:00,1.9,北北西,5.6,北,16.3,77.4,0,0,0,0,0,0,1001,1014.8
122,2022-06-13T02:01:00,1.8,北北西,5.6,北,16.3,77.7,0,0,0,0,0,0,1001,1014.8
123,2022-06-13T02:02:00,1.9,北,5.6,北,16.4,77.9,0,0,0,0,0,0,1001,1014.8
124,2022-06-13T02:03:00,2.1,北,6,北,16.5,77.8,0,0,0,0,0,0,1001,1014.8
125,2022-06-13T02:04:00,2.2,北,6,北,16.5,77.7,0,0,0,0,0,0,1000.9,1014.7
126,2022-06-13T02:05:00,2.2,北,6,北,16.6,77.8,0,0,0,0,0,0,1001,1014.8
127,2022-06-13T02:06:00,2.2,北,6,北,16.4,77.1,0,0,0,0,0,0,1001,1014.8
128,2022-06-13T02:07:00,2.1,北,6,北,16.3,77.2,0,0,0,0,0,0,1001,1014.8
129,2022-06-13T02:08:00,2.1,北,6,北,16.4,77.6,0,0,0,0,0,0,1001,1014.8
130,2022-06-13T02:09:00,2.1,北,6,北,16.3,77.5,0,0,0,0,0,0,1001,1014.8
131,2022-06-13T02:10:00,1.9,北,6,北,16.4,77.8,0,0,0,0,0,0,1001,1014.8
132,2022-06-13T02:11:00,2,北,6,北,16.4,77.9,0,0,0,0,0,0,1001.1,1014.9
133,2022-06-13T02:12:00,2,北,6,北,16.6,78,0,0,0,0,0,0,1001.1,1014.9
134,2022-06-13T02:13:00,1.9,北,4.6,北北東,16.8,78.1,0,0,0,0,0,0,1001,1014.7
135,2022-06-13T02:14:00,1.8,北北東,4.6,北北東,16.8,77.5,0,0,0,0,0,0,1001,1014.7
136,2022-06-13T02:15:00,1.9,北北東,4.6,北北東,16.5,76.6,0,0,0,0,0,0,1001,1014.8
137,2022-06-13T02:16:00,2,北北東,4.6,北北東,16.6,77.3,0,0,0,0,0,0,1001.1,1014.9
138,2022-06-13T02:17:00,2.2,北北東,4.6,北北東,16.4,77.1,0,0,0,0,0,0,1001.1,1014.9
139,2022-06-13T02:18:00,2.2,北北東,4.6,北北東,16.5,77.4,0,0,0,0,0,0,1001.1,1014.9
140,2022-06-13T02:19:00,2.3,北北東,4.6,北北東,16.6,77.8,0,0,0,0,0,0,1001.1,1014.9
141,2022-06-13T02:20:00,2.3,北北東,4.6,北北東,16.6,77.6,0,0,0,0,0,0,1001.1,1014.9
142,2022-06-13T02:21:00,2.3,北北東,4.6,北北東,16.4,77.1,0,0,0,0,0,0,1001.1,1014.9
143,2022-06-13T02:22:00,2.3,北北東,3.6,北北東,16.5,77.8,0,0,0,0,0,0,1001.1,1014.9
144,2022-06-13T02:23:00,2.3,北北東,3.6,北北東,16.6,78,0,0,0,0,0,0,1001.1,1014.9
145,2022-06-13T02:24:00,2.4,北北東,3.6,北北東,16.5,77.8,0,0,0,0,0,0,1001.1,1014.9
146,2022-06-13T02:25:00,2.4,北北東,4.1,北北東,16.4,77.2,0,0,0,0,0,0,1001.1,1014.9
147,2022-06-13T02:26:00,2.5,北北東,4.1,北北東,16.5,78,0,0,0,0,0,0,1001.1,1014.9
148,2022-06-13T02:27:00,2.5,北北東,4.1,北北東,16.5,77.8,0,0,0,0,0,0,1001.1,1014.9
149,2022-06-13T02:28:00,2.6,北北東,4.3,北北東,16.6,78,0,0,0,0,0,0,1001,1014.8
150,2022-06-13T02:29:00,2.7,北北東,4.3,北北東,16.6,77.9,0,0,0,0,0,0,1001,1014.8
151,2022-06-13T02:30:00,2.8,北北東,4.3,北北東,16.7,77.6,0,0,0,0,0,0,1000.9,1014.7
152,2022-06-13T02:31:00,3,北北東,4.5,北東,16.7,77.7,0,0,0,0,0,0,1000.9,1014.7
153,2022-06-13T02:32:00,3.1,北北東,4.5,北東,16.7,77.6,0,0,0,0,0,0,1000.8,1014.5
154,2022-06-13T02:33:00,3.2,北北東,4.5,北東,16.6,77.5,0,0,0,0,0,0,1000.8,1014.6
155,2022-06-13T02:34:00,3.2,北北東,4.5,北東,16.5,77.2,0,0,0,0,0,0,1000.8,1014.6
156,2022-06-13T02:35:00,3.1,北北東,4.5,北東,16.6,77.8,0,0,0,0,0,0,1000.8,1014.6
157,2022-06-13T02:36:00,3.1,北北東,4.5,北東,16.5,77.7,0,0,0,0,0,0,1000.8,1014.6
158,2022-06-13T02:37:00,3,北北東,4.5,北東,16.4,77.7,0,0,0,0,0,0,1000.9,1014.7
159,2022-06-13T02:38:00,2.9,北北東,4.5,北東,16.4,77.7,0,0,0,0,0,0,1000.9,1014.7
160,2022-06-13T02:39:00,2.9,北北東,4.5,北東,16.5,78.5,0,0,0,0,0,0,1000.9,1014.7
161,2022-06-13T02:40:00,2.8,北北東,4.5,北東,16.4,78.3,0,0,0,0,0,0,1000.9,1014.7
162,2022-06-13T02:41:00,2.8,北北東,4.3,北北東,16.2,78,0,0,0,0,0,0,1000.8,1014.6
163,2022-06-13T02:42:00,2.8,北北東,4.4,北北東,16.3,79,0,0,0,0,0,0,1000.8,1014.6
164,2022-06-13T02:43:00,2.8,北北東,4.4,北北東,16.3,79.3,0,0,0,0,0,0,1000.8,1014.6
165,2022-06-13T02:44:00,2.8,北北東,4.4,北北東,16.4,79.2,0,0,0,0,0,0,1000.8,1014.6
166,2022-06-13T02:45:00,2.9,北北東,4.4,北北東,16.4,79,0,0,0,0,0,0,1000.7,1014.5
167,2022-06-13T02:46:00,3,北北東,4.7,北,16.5,79,0,0,0,0,0,0,1000.7,1014.5
168,2022-06-13T02:47:00,3,北北東,4.7,北,16.4,78.5,0,0,0,0,0,0,1000.7,1014.5
169,2022-06-13T02:48:00,3.1,北北東,4.7,北,16.3,78.2,0,0,0,0,0,0,1000.7,1014.5
170,2022-06-13T02:49:00,3,北北東,4.7,北,16.2,78.4,0,0,0,0,0,0,1000.7,1014.5
171,2022-06-13T02:50:00,3,北北東,4.7,北,16.2,78.8,0,0,0,0,0,0,1000.7,1014.5
172,2022-06-13T02:51:00,3,北北東,4.7,北,16.2,79.2,0,0,0,0,0,0,1000.7,1014.5
173,2022-06-13T02:52:00,2.9,北北東,4.7,北,16.2,79.2,0,0,0,0,0,0,1000.7,1014.5
174,2022-06-13T02:53:00,2.8,北北東,4.7,北,16.1,79,0,0,0,0,0,0,1000.7,1014.5
175,2022-06-13T02:54:00,2.7,北,4.7,北,16.2,79.2,0,0,0,0,0,0,1000.7,1014.5
176,2022-06-13T02:55:00,2.5,北,4.7,北,16.1,79.1,0,0,0,0,0,0,1000.6,1014.4
177,2022-06-13T02:56:00,2.4,北,4.4,北北東,16.2,79.1,0,0,0,0,0,0,1000.6,1014.4
178,2022-06-13T02:57:00,2.3,北,4.3,北,16.2,79.3,0,0,0,0,0,0,1000.6,1014.4
179,2022-06-13T02:58:00,2.3,北,4.1,北,16.2,79.4,0,0,0,0,0,0,1000.6,1014.4
180,2022-06-13T02:59:00,2.2,北,4.1,北,16.1,79.1,0,0,0,0,0,0,1000.6,1014.4
181,2022-06-13T03:00:00,2.2,北,4.1,北,16.2,79.3,0,0,0,0,0,0,1000.6,1014.4
182,2022-06-13T03:01:00,2.2,北,4.1,北,16.1,79.1,0,0,0,0,0,0,1000.6,1014.4
183,2022-06-13T03:02:00,2,北,3.9,北北東,16.1,79.1,0,0,0,0,0,0,1000.7,1014.5
184,2022-06-13T03:03:00,1.9,北,3.9,北北東,16.2,79.4,0,0,0,0,0,0,1000.6,1014.4
185,2022-06-13T03:04:00,1.9,北,4,北,16.2,79.4,0,0,0,0,0,0,1000.6,1014.4
186,2022-06-13T03:05:00,1.9,北,4,北,16.2,79.3,0,0,0,0,0,0,1000.6,1014.4
187,2022-06-13T03:06:00,1.9,北,4,北,16.1,78.9,0,0,0,0,0,0,1000.5,1014.3
188,2022-06-13T03:07:00,1.9,北,4,北,16.1,78.9,0,0,0,0,0,0,1000.5,1014.3
189,2022-06-13T03:08:00,2,北,4,北,16.2,79.1,0,0,0,0,0,0,1000.5,1014.3
190,2022-06-13T03:09:00,2,北,4,北,16.2,79.1,0,0,0,0,0,0,1000.5,1014.3
191,2022-06-13T03:10:00,2,北,4,北,16.2,78.9,0,0,0,0,0,0,1000.5,1014.3
192,2022-06-13T03:11:00,2,北,4,北,16.1,78.7,0,0,0,0,0,0,1000.5,1014.3
193,2022-06-13T03:12:00,2,北,4,北,16.2,78.9,0,0,0,0,0,0,1000.5,1014.3
194,2022-06-13T03:13:00,2.1,北,4,北,16.1,78.9,0,0,0,0,0,0,1000.5,1014.3
195,2022-06-13T03:14:00,2,北,4,北北東,16.1,79.2,0,0,0,0,0,0,1000.6,1014.4
196,2022-06-13T03:15:00,1.9,北,4,北北東,16.1,79,0,0,0,0,0,0,1000.6,1014.4
197,2022-06-13T03:16:00,1.8,北,4,北北東,16.1,79.2,0,0,0,0,0,0,1000.6,1014.4
198,2022-06-13T03:17:00,1.7,北,4,北北東,16.2,79.4,0,0,0,0,0,0,1000.7,1014.5
199,2022-06-13T03:18:00,1.5,北,4,北北東,16.1,79.2,0,0,0,0,0,0,1000.7,1014.5
200,2022-06-13T03:19:00,1.5,北,4.3,北北東,16.1,79.3,0,0,0,0,0,0,1000.7,1014.5
201,2022-06-13T03:20:00,1.5,北,4.3,北北東,16.1,79.5,0,0,0,0,0,0,1000.7,1014.5
202,2022-06-13T03:21:00,1.5,北,4.3,北北東,16.2,79.4,0,0,0,0,0,0,1000.7,1014.5
203,2022-06-13T03:22:00,1.6,北,4.6,北北東,16.2,79,0,0,0,0,0,0,1000.7,1014.5
204,2022-06-13T03:23:00,1.6,北,4.8,北北東,16.5,79.2,0,0,0,0,0,0,1000.7,1014.5
205,2022-06-13T03:24:00,1.8,北,4.9,北,16.6,78.5,0,0,0,0,0,0,1000.7,1014.5
206,2022-06-13T03:25:00,2.1,北,5,北北東,16.7,78,0,0,0,0,0,0,1000.7,1014.4
207,2022-06-13T03:26:00,2.2,北,5,北北東,16.5,77.1,0,0,0,0,0,0,1000.7,1014.5
208,2022-06-13T03:27:00,2.3,北,5,北北東,16.6,77.2,0,0,0,0,0,0,1000.6,1014.4
209,2022-06-13T03:28:00,2.5,北,5,北北東,16.7,77.4,0,0,0,0,0,0,1000.7,1014.4
210,2022-06-13T03:29:00,2.7,北,5,北北東,16.8,77,0,0,0,0,0,0,1000.7,1014.4
211,2022-06-13T03:30:00,2.8,北北東,5,北北東,16.8,76.7,0,0,0,0,0,0,1000.7,1014.4
212,2022-06-13T03:31:00,2.9,北北東,5,北北東,16.6,76.3,0,0,0,0,0,0,1000.8,1014.6
213,2022-06-13T03:32:00,2.8,北北東,5,北北東,16.6,76.4,0,0,0,0,0,0,1000.8,1014.6
214,2022-06-13T03:33:00,2.9,北北東,5,北北東,16.8,77.4,0,0,0,0,0,0,1000.9,1014.6
215,2022-06-13T03:34:00,2.9,北北東,5,北北東,16.7,76.8,0,0,0,0,0,0,1000.9,1014.7
216,2022-06-13T03:35:00,2.8,北北東,4.7,北北東,16.7,76.9,0,0,0,0,0,0,1000.9,1014.7
217,2022-06-13T03:36:00,2.9,北北東,4.5,北北東,16.7,76.7,0,0,0,0,0,0,1000.9,1014.7
218,2022-06-13T03:37:00,2.8,北北東,4.4,北東,16.7,76.6,0,0,0,0,0,0,1000.9,1014.7
219,2022-06-13T03:38:00,2.7,北北東,4.4,北東,16.8,76.9,0,0,0,0,0,0,1000.9,1014.6
220,2022-06-13T03:39:00,2.6,北東,4.4,北東,16.8,76.5,0,0,0,0,0,0,1000.9,1014.6
221,2022-06-13T03:40:00,2.5,北東,4.4,北東,16.7,76.1,0,0,0,0,0,0,1000.9,1014.7
222,2022-06-13T03:41:00,2.5,北東,4.4,北東,16.8,76.5,0,0,0,0,0,0,1000.9,1014.6
223,2022-06-13T03:42:00,2.5,北東,4.4,北東,16.8,76.8,0,0,0,0,0,0,1000.9,1014.6
224,2022-06-13T03:43:00,2.5,北東,4.4,北東,16.8,76.4,0,0,0,0,0,0,1000.9,1014.6
225,2022-06-13T03:44:00,2.4,北東,3.9,北,16.7,76.7,0,0,0,0,0,0,1000.9,1014.7
226,2022-06-13T03:45:00,2.4,北北東,3.9,北,16.4,75.8,0,0,0,0,0,0,1000.9,1014.7
227,2022-06-13T03:46:00,2.4,北北東,4.4,北北東,16.4,76.9,0,0,0,0,0,0,1000.9,1014.7
228,2022-06-13T03:47:00,2.5,北北東,4.4,北北東,16.5,78.1,0,0,0,0,0,0,1000.9,1014.7
229,2022-06-13T03:48:00,2.6,北北東,4.4,北北東,16.5,78.3,0,0,0,0,0,0,1000.9,1014.7
230,2022-06-13T03:49:00,2.6,北北東,4.4,北北東,16.4,77.8,0,0,0,0,0,0,1000.8,1014.6
231,2022-06-13T03:50:00,2.7,北北東,4.4,北北東,16.5,78.5,0,0,0,0,0,0,1000.8,1014.6
232,2022-06-13T03:51:00,2.8,北北東,4.4,北北東,16.4,78.5,0,0,0,0,0,0,1000.8,1014.6
233,2022-06-13T03:52:00,2.9,北北東,4.4,北北東,16.4,78.6,0,0,0,0,0,0,1000.8,1014.6
234,2022-06-13T03:53:00,2.9,北北東,4.4,北北東,16.5,79.2,0,0,0,0,0,0,1000.8,1014.6
235,2022-06-13T03:54:00,3.1,北北東,5.2,北東,16.4,78.7,0,0,0,0,0,0,1000.8,1014.6
236,2022-06-13T03:55:00,3.2,北北東,5.2,北東,16.5,79,0,0,0,0,0,0,1000.8,1014.6
237,2022-06-13T03:56:00,3.2,北北東,5.2,北東,16.5,78.7,0,0,0,0,0,0,1000.8,1014.6
238,2022-06-13T03:57:00,3.2,北北東,5.2,北東,16.4,78.5,0,0,0,0,0,0,1000.8,1014.6
239,2022-06-13T03:58:00,3.3,北北東,5.4,北北東,16.4,78.8,0,0,0,0,0,0,1000.8,1014.6
240,2022-06-13T03:59:00,3.4,北北東,5.4,北北東,16.4,79.2,0,0,0,0,0,0,1000.8,1014.6
241,2022-06-13T04:00:00,3.4,北北東,5.4,北北東,16.4,79.2,0,0,0,0,0,0,1000.7,1014.5
242,2022-06-13T04:01:00,3.5,北北東,5.4,北北東,16.4,79.1,0,0,0,0,0,0,1000.7,1014.5
243,2022-06-13T04:02:00,3.5,北北東,5.4,北北東,16.4,78.8,0,0,0,0,0,0,1000.7,1014.5
244,2022-06-13T04:03:00,3.6,北北東,5.4,北北東,16.4,78.9,0,0,0,0,0,0,1000.7,1014.5
245,2022-06-13T04:04:00,3.6,北北東,5.4,北北東,16.3,78.7,0,0,0,0,0,0,1000.7,1014.5
246,2022-06-13T04:05:00,3.5,北北東,5.4,北北東,16.3,79,0,0,0,0,0,0,1000.8,1014.6
247,2022-06-13T04:06:00,3.4,北北東,5.4,北北東,16.3,79.3,0,0,0,0,0,0,1000.8,1014.6
248,2022-06-13T04:07:00,3.4,北北東,5.4,北北東,16.3,79.2,0,0,0,0,0,0,1000.8,1014.6
249,2022-06-13T04:08:00,3.3,北北東,5.2,北北東,16.4,79.7,0,0,0,0,0,0,1000.8,1014.6
250,2022-06-13T04:09:00,3.3,北北東,5.2,北北東,16.4,79.4,0,0,0,0,0,0,1000.8,1014.6
251,2022-06-13T04:10:00,3.2,北北東,5.2,北北東,16.3,79.2,0,0,0,0,0,0,1000.8,1014.6
252,2022-06-13T04:11:00,3.2,北北東,5.2,北北東,16.4,79.2,0,0,0,0,0,0,1000.8,1014.6
253,2022-06-13T04:12:00,3.1,北北東,5.2,北北東,16.4,79.5,0,0,0,0,0,0,1000.8,1014.6
254,2022-06-13T04:13:00,2.9,北北東,4.7,北北東,16.5,79.6,0,0,0,0,0,0,1000.7,1014.5
255,2022-06-13T04:14:00,2.8,北北東,6,北,16.4,79,0,0,0,0,0,0,1000.7,1014.5
256,2022-06-13T04:15:00,3,北北東,6,北,16.4,78.9,0,0,0,0,0,0,1000.7,1014.5
257,2022-06-13T04:16:00,3.1,北北東,6,北,16.3,78.7,0,0,0,0,0,0,1000.7,1014.5
258,2022-06-13T04:17:00,3.2,北北東,6,北,16.3,78.6,0,0,0,0,0,0,1000.7,1014.5
259,2022-06-13T04:18:00,3.2,北北東,6,北,16.4,78.9,0,0,0,0,0,0,1000.7,1014.5
260,2022-06-13T04:19:00,3.1,北北東,6,北,16.4,78.6,0,0,0,0,0,0,1000.7,1014.5
261,2022-06-13T04:20:00,3,北,6,北,16.3,78.7,0,0,0,0,0,0,1000.7,1014.5
262,2022-06-13T04:21:00,2.9,北,6,北,16.2,78.6,0,0,0,0,0,0,1000.7,1014.5
263,2022-06-13T04:22:00,2.7,北,6,北,16.3,79,0,0,0,0,0,0,1000.8,1014.6
264,2022-06-13T04:23:00,2.6,北,6,北,16.3,79,0,0,0,0,0,0,1000.8,1014.6
265,2022-06-13T04:24:00,2.6,北,5.9,北北東,16.3,79,0,0,0,0,0,0,1000.8,1014.6
266,2022-06-13T04:25:00,2.4,北,5.6,北,16.4,79.5,0,0,0,0,0,0,1000.8,1014.6
267,2022-06-13T04:26:00,2.3,北,5.6,北,16.4,79,0,0,0,0,0,0,1000.8,1014.6
268,2022-06-13T04:27:00,2.2,北,5.6,北,16.5,79.3,0,0,0,0,0,0,1000.9,1014.7
269,2022-06-13T04:28:00,2.2,北,4.6,北,16.6,79,0,0,0,0,0,0,1000.8,1014.6
270,2022-06-13T04:29:00,2.4,北,5.4,北北東,16.7,78.9,0,0,0,0,0,0,1000.8,1014.5
271,2022-06-13T04:30:00,2.5,北,5.4,北北東,16.7,78.4,0,0,0,0,0,0,1000.9,1014.7
272,2022-06-13T04:31:00,2.6,北,5.4,北北東,16.7,78.3,0,0,0,0,0,0,1000.9,1014.7
273,2022-06-13T04:32:00,2.9,北,5.4,北北東,16.6,77.9,0,0,0,0,0,0,1000.9,1014.7
274,2022-06-13T04:33:00,3.1,北北東,5.4,北北東,16.8,78,0,0,0,0,0,0,1000.9,1014.6
275,2022-06-13T04:34:00,3.1,北北東,5.4,北北東,16.6,77.5,0,0,0,0,0,0,1000.9,1014.7
276,2022-06-13T04:35:00,3.1,北北東,5.4,北北東,16.6,77.5,0,0,0,0,0,0,1001,1014.8
277,2022-06-13T04:36:00,3,北北東,5.4,北北東,16.5,77.5,0,0,0,0,0,0,1000.9,1014.7
278,2022-06-13T04:37:00,3,北北東,5.4,北北東,16.4,77.7,0,0,0,0,0,0,1000.9,1014.7
279,2022-06-13T04:38:00,3,北北東,5.4,北北東,16.5,78.4,0,0,0,0,0,0,1001,1014.8
280,2022-06-13T04:39:00,2.9,北北東,5.1,北北東,16.7,78.6,0,0,0,0,0,0,1000.9,1014.7
281,2022-06-13T04:40:00,2.8,北北東,4.8,北北東,16.7,78.5,0,0,0,0,0,0,1000.9,1014.7
282,2022-06-13T04:41:00,2.7,北北東,4.8,北北東,16.5,77.5,0,0,0,0,0,0,1000.9,1014.7
283,2022-06-13T04:42:00,2.6,北北東,4.7,北北東,16.5,78,0,0,0,0,0,0,1000.9,1014.7
284,2022-06-13T04:43:00,2.4,北北東,4.2,北,16.5,78.2,0,0,0,0,0,0,1000.9,1014.7
285,2022-06-13T04:44:00,2.4,北北東,4.2,北,16.4,78.3,0,0,0,0,0,0,1000.9,1014.7
286,2022-06-13T04:45:00,2.4,北北東,4.2,北,16.5,78.6,0,0,0,0,0,0,1000.9,1014.7
287,2022-06-13T04:46:00,2.3,北,4.2,北,16.5,79,0,0,0,0,0,0,1000.9,1014.7
288,2022-06-13T04:47:00,2.2,北,4.2,北,16.3,78.3,0,0,0,0,0,0,1000.9,1014.7
289,2022-06-13T04:48:00,2.3,北,4.2,北,16.3,78.8,0,0,0,0,0,0,1000.8,1014.6
290,2022-06-13T04:49:00,2.2,北,4.2,北,16.2,79.1,0,0,0,0,0,0,1000.9,1014.7
291,2022-06-13T04:50:00,2.2,北,4.2,北,16.3,79.6,0,0,0,0,0,0,1000.8,1014.6
292,2022-06-13T04:51:00,2.1,北,3.7,北北東,16.3,79.9,0,0,0,0,0,0,1000.9,1014.7
293,2022-06-13T04:52:00,2.1,北,3.7,北北東,16.4,79.9,0,0,0,0,0,0,1000.9,1014.7
294,2022-06-13T04:53:00,2.1,北,3.7,北北東,16.3,79.9,0,0,0,0,0,0,1000.8,1014.6
295,2022-06-13T04:54:00,2,北,3.7,北北東,16.3,79.7,0,0,0,0,0,0,1000.8,1014.6
296,2022-06-13T04:55:00,2,北,3.7,北北東,16.3,79.9,0,0,0,0,0,0,1000.9,1014.7
297,2022-06-13T04:56:00,2,北,3.7,北北東,16.3,80,0,0,0,0,0.01,0,1000.8,1014.6
298,2022-06-13T04:57:00,2,北北東,3.7,北北東,16.3,79.9,0,0,0,0,0.01,0,1000.8,1014.6
299,2022-06-13T04:58:00,2.1,北北東,4.1,北北東,16.5,80.5,0,0,0,0,0.01,0,1000.9,1014.7
300,2022-06-13T04:59:00,2.2,北北東,4.1,北北東,16.5,80.3,0,0,0,0,0.01,0,1000.9,1014.7
301,2022-06-13T05:00:00,2.2,北北東,4.1,北北東,16.6,79.8,0,0,0,0,0.01,0,1000.9,1014.7
302,2022-06-13T05:01:00,2.3,北北東,4.1,北北東,16.4,78.8,0,0,0,0,0.01,0,1000.9,1014.7
303,2022-06-13T05:02:00,2.4,北北東,4.1,北北東,16.4,78.9,0,0,0,0,0.01,0,1000.9,1014.7
304,2022-06-13T05:03:00,2.6,北北東,4.6,北北東,16.5,79.5,0,0,0,0,0.01,0,1000.8,1014.6
305,2022-06-13T05:04:00,2.8,北北東,4.6,北北東,16.7,79.9,0,0,0,0,0.01,0,1000.8,1014.5
306,2022-06-13T05:05:00,2.9,北北東,4.6,北北東,16.7,79.3,0,0,0,0,0.01,0,1000.7,1014.4
307,2022-06-13T05:06:00,3,北北東,4.6,北北東,16.6,78.5,0,0,0,0,0.01,0,1000.7,1014.5
308,2022-06-13T05:07:00,3,北北東,4.6,北北東,16.7,78.7,0,0,0,0,0.01,0,1000.7,1014.4
309,2022-06-13T05:08:00,3,北北東,4.6,北北東,16.6,78.4,0,0,0,0,0.01,0,1000.7,1014.5
310,2022-06-13T05:09:00,3,北北東,4.6,北北東,16.6,78.3,0,0,0,0,0.02,0,1000.7,1014.5
311,2022-06-13T05:10:00,3,北北東,4.6,北北東,16.5,78.4,0,0,0,0,0.02,0,1000.8,1014.6
312,2022-06-13T05:11:00,2.9,北北東,4.6,北北東,16.4,78.4,0,0,0,0,0.02,0,1000.8,1014.6
313,2022-06-13T05:12:00,3,北北東,4.6,北北東,16.4,78.8,0,0,0,0,0.02,0,1000.8,1014.6
314,2022-06-13T05:13:00,2.9,北北東,4.3,北北東,16.7,79.6,0,0,0,0,0.02,0,1000.8,1014.5
315,2022-06-13T05:14:00,2.8,北北東,4.3,北北東,16.7,79.4,0,0,0,0,0.02,0,1000.8,1014.5
316,2022-06-13T05:15:00,2.8,北北東,4.3,北北東,16.5,78.8,0,0,0,0,0.02,0,1000.8,1014.6
317,2022-06-13T05:16:00,2.7,北北東,4.3,北北東,16.5,78.9,0,0,0,0,0.02,0,1000.8,1014.6
318,2022-06-13T05:17:00,2.7,北北東,4.2,北北東,16.4,79,0,0,0,0,0.02,0,1000.8,1014.6
319,2022-06-13T05:18:00,2.6,北北東,4.2,北北東,16.4,79,0,0,0,0,0.03,0,1000.8,1014.6
320,2022-06-13T05:19:00,2.5,北北東,3.9,北北東,16.4,79.6,0,0,0,0,0.03,0,1000.8,1014.6
321,2022-06-13T05:20:00,2.5,北北東,3.9,北北東,16.7,80.2,0,0,0,0,0.03,0,1000.8,1014.5
322,2022-06-13T05:21:00,2.5,北北東,3.9,北北東,16.5,79.5,0,0,0,0,0.03,0,1000.8,1014.6
323,2022-06-13T05:22:00,2.5,北北東,3.9,北北東,16.6,79.7,0,0,0,0,0.03,0,1000.8,1014.6
324,2022-06-13T05:23:00,2.4,北北東,3.8,北北東,16.7,79.8,0,0,0,0,0.03,0,1000.8,1014.5
325,2022-06-13T05:24:00,2.4,北北東,3.8,北北東,16.5,79.1,0,0,0,0,0.03,0,1000.9,1014.7